Regional Weather Roundup
Issued by NWS

Home | Current Version | Previous Version | Text Only | Print | Product List | Glossary On
Versions: 1 2 3 4 5 6 7 8 9 10 11 12 13 14 15 16 17 18 19 20 21 22 23 24 25 26 27 28 29 30 31 32 33 34 35 36 37 38 39 40 41 42 43 44 45 46 47 48 49 50
000
ASUS42 KFFC 290003
RWRGA
WEATHER ROUNDUP FOR GEORGIA
NATIONAL WEATHER SERVICE PEACHTREE CITY GA
700 PM EST FRI NOV 28 2014

NOTE: "FAIR" INDICATES FEW OR NO CLOUDS BELOW 12,000 FEET WITH NO
SIGNIFICANT WEATHER AND/OR OBSTRUCTIONS TO VISIBILITY.

* = USE WITH CAUTION. THE STATIONS MARKED WITH AN ASTERISK MAY NOT
REPORT WEATHER SUCH AS PRECIPITATION, FOG, OR THUNDER AND ARE NOT
QUALITY CONTROLLED BY NWS.

THE REMARK "TC" DENOTES TEMPERATURE READING IN DEGREES CELSIUS.

GAZ001>058-290100-
NORTH GEORGIA

CITY           SKY/WX    TMP DP  RH WIND       PRES   REMARKS
ATLANTA        CLEAR     44  16  32 CALM      30.28S
6HR MIN TEMP:  44; 6HR MAX TEMP:  51;

ATHENS         CLEAR     38  24  57 CALM      30.29S
6HR MIN TEMP:  37; 6HR MAX TEMP:  49;

CHAMBLEE       CLEAR     38  19  46 CALM      30.28S
6HR MIN TEMP:  38; 6HR MAX TEMP:  49;

PEACHTREE CITY CLEAR     36  27  69 CALM      30.30S
6HR MIN TEMP:  36; 6HR MAX TEMP:  52;

ROME           CLEAR     37  22  54 W3        30.28S
6HR MIN TEMP:  37; 6HR MAX TEMP:  48;

WEST ATLANTA   CLEAR     40  21  46 CALM      30.28S
6HR MIN TEMP:  39; 6HR MAX TEMP:  50;

GAINESVILLE    FAIR      39  19  44 W6        30.28S WCI  35
6HR MIN TEMP:  39; 6HR MAX TEMP:  47;

CARTERSVILLE   CLEAR     32  22  66 CALM      30.29F
6HR MIN TEMP:  32; 6HR MAX TEMP:  47;



CITY           SKY/WX    TMP DP  RH WIND       PRES   REMARKS
DALTON*        CLEAR     36  21  55 CALM      30.29R
LAWRENCEVILLE* CLEAR     37  19  48 S7        30.27R WCI  32
MARIETTA       CLEAR     36  24  60 CALM      30.28S
KENNESAW*      CLEAR     37  19  48 CALM      30.29F
$$

GAZ059>098-102>109-290100-
CENTRAL GEORGIA

CITY           SKY/WX    TMP DP  RH WIND       PRES   REMARKS
AUGUSTA-BUSH   CLEAR     35  28  75 CALM      30.33R
6HR MIN TEMP:  35; 6HR MAX TEMP:  51;

AUGUSTA-DANIEL CLEAR     44  24  45 N5        30.32R
6HR MIN TEMP:  44; 6HR MAX TEMP:  51;

COLUMBUS       CLEAR     45  20  36 CALM      30.31R
6HR MIN TEMP:  45; 6HR MAX TEMP:  54;

MACON          CLEAR     38  31  76 CALM      30.31S
6HR MIN TEMP:  38; 6HR MAX TEMP:  51;

ROBINS AFB     CLEAR     40  31  68 S2        30.31R


CITY           SKY/WX    TMP DP  RH WIND       PRES   REMARKS
LAGRANGE*      CLEAR     39  28  64 CALM      30.30F
SYLVANIA*      CLEAR     40  37  87 CALM      30.33S
MILLEDGEVILLE* CLEAR     37  34  87 CALM      30.31S
$$

GAZ099>101-110>166-290100-
SOUTH GEORGIA

CITY           SKY/WX    TMP DP  RH WIND       PRES   REMARKS
SAVANNAH       CLEAR     43  31  62 CALM      30.33F
6HR MIN TEMP:  43; 6HR MAX TEMP:  54;

VALDOSTA       CLEAR     40  33  76 CALM      30.33R
6HR MIN TEMP:  40; 6HR MAX TEMP:  54;

ALMA           CLEAR     39  34  82 CALM      30.32S
6HR MIN TEMP:  38; 6HR MAX TEMP:  52;

ST SIMONS      CLEAR     42  34  73 CALM      30.34S
6HR MIN TEMP:  42; 6HR MAX TEMP:  51;

FT STEWART     CLEAR     39  34  81 CALM      30.32F
ALBANY         CLEAR     41  33  73 CALM      30.34S
HUNTER AFB     CLEAR     41  33  73 SE2       30.31F
MOODY AFB      CLEAR     41  34  77 N1        30.32R
BRUNSWICK      CLEAR     41  36  81 CALM      30.34F


CITY           SKY/WX    TMP DP  RH WIND       PRES   REMARKS
BAINBRIDGE*    CLEAR     43  37  81 CALM      30.32S
MOULTRIE*      CLEAR     43  36  75 CALM      30.32S
VIDALIA*       CLEAR     41  34  75 CALM      30.33R
WAYCROSS*      CLEAR     45  39  80 CALM      30.33S
DOUGLAS*       CLEAR     43  34  70 CALM      30.33S
$$


USA.gov is the U.S. government's official web portal to all federal, state and local government web resources and services.